Time,TemperatureF,DewpointF,PressureIn,WindDirection,WindDirectionDegrees,WindSpeedMPH,WindSpeedGustMPH,Humidity,HourlyPrecipIn,Conditions,Clouds,dailyrainin,SoftwareType,DateUTC
2013-02-19 00:01:00,44.5,41.2,29.97,NW,318,0.0,3.0,88,0.00,,,0.01,Wunderground v.1.15,2013-02-19 08:01:00,
2013-02-19 00:07:00,44.6,41.3,29.97,NW,316,0.0,3.0,88,0.00,,,0.00,Wunderground v.1.15,2013-02-19 08:07:00,
2013-02-19 00:13:00,44.6,41.3,29.97,NW,316,1.0,3.0,88,0.00,,,0.00,Wunderground v.1.15,2013-02-19 08:13:00,
2013-02-19 00:19:00,44.5,41.2,29.97,NW,326,0.0,3.0,88,0.00,,,0.00,Wunderground v.1.15,2013-02-19 08:19:00,
2013-02-19 00:24:00,44.5,41.2,29.97,NNW,327,0.0,3.0,88,0.00,,,0.00,Wunderground v.1.15,2013-02-19 08:24:00,
2013-02-19 00:30:00,44.5,41.2,29.97,NW,326,0.0,3.0,88,0.00,,,0.00,Wunderground v.1.15,2013-02-19 08:30:00,
2013-02-19 00:36:00,44.4,41.4,29.97,NW,325,0.0,3.0,89,0.00,,,0.00,Wunderground v.1.15,2013-02-19 08:36:00,
2013-02-19 00:42:00,44.5,41.5,29.97,NW,325,0.0,3.0,89,0.00,,,0.00,Wunderground v.1.15,2013-02-19 08:42:00,
2013-02-19 00:48:00,44.5,41.5,29.97,NW,325,0.0,3.0,89,0.00,,,0.00,Wunderground v.1.15,2013-02-19 08:48:00,
2013-02-19 00:53:00,44.6,41.6,29.97,NW,326,0.0,3.0,89,0.00,,,0.00,Wunderground v.1.15,2013-02-19 08:53:00,
2013-02-19 00:59:00,44.5,41.5,29.97,West,279,0.0,3.0,89,0.00,,,0.00,Wunderground v.1.15,2013-02-19 08:59:00,
2013-02-19 01:05:00,44.5,41.5,29.97,West,279,0.0,3.0,89,0.00,,,0.00,Wunderground v.1.15,2013-02-19 09:05:00,
2013-02-19 01:10:00,44.5,41.5,29.97,West,279,0.0,3.0,89,0.00,,,0.00,Wunderground v.1.15,2013-02-19 09:10:00,
2013-02-19 01:15:00,44.5,41.5,29.97,NNE,24,1.0,3.0,89,0.00,,,0.00,Wunderground v.1.15,2013-02-19 09:15:00,
2013-02-19 01:21:00,44.6,41.6,29.97,NW,308,1.0,3.0,89,0.00,,,0.00,Wunderground v.1.15,2013-02-19 09:21:00,
2013-02-19 01:26:00,44.7,41.4,29.97,NW,309,1.0,3.0,88,0.00,,,0.00,Wunderground v.1.15,2013-02-19 09:26:00,
2013-02-19 01:31:00,44.8,41.5,29.97,NNW,328,1.0,3.0,88,0.00,,,0.00,Wunderground v.1.15,2013-02-19 09:31:00,
2013-02-19 01:36:00,44.8,41.2,29.97,WSW,242,1.0,3.0,87,0.00,,,0.00,Wunderground v.1.15,2013-02-19 09:36:00,
2013-02-19 01:42:00,44.9,41.0,29.97,NW,326,1.0,3.0,86,0.00,,,0.00,Wunderground v.1.15,2013-02-19 09:42:00,
2013-02-19 01:49:00,44.9,41.0,29.97,NW,326,1.0,3.0,86,0.00,,,0.00,Wunderground v.1.15,2013-02-19 09:49:00,
2013-02-19 01:54:00,44.9,40.4,29.96,North,352,0.0,3.0,84,0.00,,,0.00,Wunderground v.1.15,2013-02-19 09:54:00,
2013-02-19 01:59:00,45.0,40.5,29.97,NW,321,1.0,3.0,84,0.00,,,0.00,Wunderground v.1.15,2013-02-19 09:59:00,
2013-02-19 02:04:00,45.0,40.5,29.96,NW,321,1.0,3.0,84,0.00,,,0.00,Wunderground v.1.15,2013-02-19 10:04:00,
2013-02-19 02:10:00,44.8,40.3,29.96,NW,326,1.0,3.0,84,0.00,,,0.00,Wunderground v.1.15,2013-02-19 10:10:00,
2013-02-19 02:15:00,44.8,40.0,29.96,NNW,327,0.0,3.0,83,0.00,,,0.00,Wunderground v.1.15,2013-02-19 10:15:00,
2013-02-19 02:21:00,44.9,39.7,29.96,NNW,327,1.0,3.0,82,0.00,,,0.00,Wunderground v.1.15,2013-02-19 10:21:00,
2013-02-19 02:27:00,44.9,39.7,29.95,NW,326,1.0,3.0,82,0.00,,,0.00,Wunderground v.1.15,2013-02-19 10:27:00,
2013-02-19 02:34:00,44.7,39.9,29.96,NW,326,0.0,3.0,83,0.00,,,0.00,Wunderground v.1.15,2013-02-19 10:34:00,
2013-02-19 02:39:00,44.7,39.9,29.95,NE,47,1.0,3.0,83,0.00,,,0.00,Wunderground v.1.15,2013-02-19 10:39:00,
2013-02-19 02:45:00,44.7,39.9,29.95,NNE,24,2.0,3.0,83,0.00,,,0.00,Wunderground v.1.15,2013-02-19 10:45:00,
2013-02-19 02:51:00,44.7,39.9,29.95,NNE,28,1.0,3.0,83,0.00,,,0.00,Wunderground v.1.15,2013-02-19 10:51:00,
2013-02-19 02:57:00,44.6,39.8,29.95,NNE,28,1.0,3.0,83,0.00,,,0.00,Wunderground v.1.15,2013-02-19 10:57:00,
2013-02-19 03:02:00,44.5,40.0,29.95,NNE,28,1.0,3.0,84,0.00,,,0.00,Wunderground v.1.15,2013-02-19 11:02:00,
2013-02-19 03:07:00,44.3,39.8,29.94,NNE,28,0.0,3.0,84,0.00,,,0.00,Wunderground v.1.15,2013-02-19 11:07:00,
2013-02-19 03:13:00,44.2,39.7,29.94,NNE,28,0.0,3.0,84,0.00,,,0.00,Wunderground v.1.15,2013-02-19 11:13:00,
2013-02-19 03:18:00,44.1,39.9,29.94,NNE,28,0.0,3.0,85,0.00,,,0.00,Wunderground v.1.15,2013-02-19 11:18:00,
2013-02-19 03:23:00,43.9,39.7,29.94,NNE,28,0.0,3.0,85,0.00,,,0.00,Wunderground v.1.15,2013-02-19 11:23:00,
2013-02-19 03:29:00,43.7,39.8,29.94,NNE,28,0.0,3.0,86,0.00,,,0.00,Wunderground v.1.15,2013-02-19 11:29:00,
2013-02-19 03:34:00,43.7,39.8,29.94,NNE,28,0.0,3.0,86,0.00,,,0.00,Wunderground v.1.15,2013-02-19 11:34:00,
2013-02-19 03:39:00,43.7,39.8,29.94,NNE,28,1.0,3.0,86,0.00,,,0.00,Wunderground v.1.15,2013-02-19 11:39:00,
2013-02-19 03:45:00,43.7,39.8,29.94,NNE,27,0.0,3.0,86,0.00,,,0.00,Wunderground v.1.15,2013-02-19 11:45:00,
2013-02-19 03:50:00,43.9,40.0,29.94,WSW,251,0.0,4.0,86,0.00,,,0.00,Wunderground v.1.15,2013-02-19 11:50:00,
2013-02-19 03:55:00,44.6,39.8,29.94,WSW,245,2.0,4.0,83,0.00,,,0.00,Wunderground v.1.15,2013-02-19 11:55:00,
2013-02-19 04:00:00,45.0,39.5,29.93,WSW,246,2.0,3.0,81,0.00,,,0.00,Wunderground v.1.15,2013-02-19 12:00:00,
2013-02-19 04:06:00,45.2,39.4,29.93,SSW,203,1.0,3.0,80,0.00,,,0.00,Wunderground v.1.15,2013-02-19 12:06:00,
2013-02-19 04:11:00,45.3,39.5,29.93,SW,231,1.0,3.0,80,0.00,,,0.00,Wunderground v.1.15,2013-02-19 12:11:00,
2013-02-19 04:16:00,45.0,39.8,29.93,SW,233,1.0,3.0,82,0.00,,,0.00,Wunderground v.1.15,2013-02-19 12:16:00,
2013-02-19 04:22:00,44.5,40.0,29.93,SW,231,1.0,3.0,84,0.00,,,0.00,Wunderground v.1.15,2013-02-19 12:22:00,
2013-02-19 04:27:00,44.1,39.9,29.93,SW,231,1.0,3.0,85,0.00,,,0.00,Wunderground v.1.15,2013-02-19 12:27:00,
2013-02-19 04:32:00,43.7,39.8,29.93,SW,231,1.0,3.0,86,0.00,,,0.00,Wunderground v.1.15,2013-02-19 12:32:00,
2013-02-19 04:37:00,43.4,39.8,29.93,SW,231,1.0,3.0,87,0.00,,,0.00,Wunderground v.1.15,2013-02-19 12:37:00,
2013-02-19 04:42:00,43.3,39.7,29.93,NW,312,1.0,3.0,87,0.00,,,0.00,Wunderground v.1.15,2013-02-19 12:42:00,
2013-02-19 04:48:00,43.2,39.6,29.93,NNW,347,2.0,3.0,87,0.00,,,0.00,Wunderground v.1.15,2013-02-19 12:48:00,
2013-02-19 04:54:00,43.1,39.5,29.94,NNW,347,1.0,3.0,87,0.00,,,0.00,Wunderground v.1.15,2013-02-19 12:54:00,
2013-02-19 04:59:00,43.1,39.5,29.93,NNW,347,1.0,3.0,87,0.00,,,0.00,Wunderground v.1.15,2013-02-19 12:59:00,
2013-02-19 05:04:00,43.1,39.8,29.93,NNW,347,1.0,3.0,88,0.00,,,0.00,Wunderground v.1.15,2013-02-19 13:04:00,
2013-02-19 05:09:00,43.0,39.7,29.94,NNW,347,0.0,3.0,88,0.00,,,0.00,Wunderground v.1.15,2013-02-19 13:09:00,
2013-02-19 05:15:00,43.0,39.7,29.94,NNW,347,0.0,3.0,88,0.00,,,0.00,Wunderground v.1.15,2013-02-19 13:15:00,
2013-02-19 05:20:00,42.9,39.6,29.93,NNW,347,0.0,3.0,88,0.00,,,0.00,Wunderground v.1.15,2013-02-19 13:20:00,
2013-02-19 05:25:00,42.9,39.6,29.93,NNW,347,0.0,3.0,88,0.00,,,0.00,Wunderground v.1.15,2013-02-19 13:25:00,
2013-02-19 05:30:00,42.9,39.6,29.93,NNW,347,0.0,3.0,88,0.00,,,0.00,Wunderground v.1.15,2013-02-19 13:30:00,
2013-02-19 05:35:00,42.9,39.6,29.93,NNW,347,0.0,3.0,88,0.00,,,0.00,Wunderground v.1.15,2013-02-19 13:35:00,
2013-02-19 05:41:00,42.8,39.5,29.93,NNW,347,0.0,3.0,88,0.00,,,0.00,Wunderground v.1.15,2013-02-19 13:41:00,
2013-02-19 05:46:00,42.7,39.4,29.93,North,349,0.0,3.0,88,0.00,,,0.00,Wunderground v.1.15,2013-02-19 13:46:00,
2013-02-19 05:52:00,42.7,39.4,29.93,North,349,0.0,3.0,88,0.00,,,0.00,Wunderground v.1.15,2013-02-19 13:52:00,
2013-02-19 05:57:00,42.7,39.4,29.93,North,349,0.0,3.0,88,0.00,,,0.00,Wunderground v.1.15,2013-02-19 13:57:00,
2013-02-19 06:02:00,42.8,39.5,29.93,North,349,0.0,3.0,88,0.00,,,0.00,Wunderground v.1.15,2013-02-19 14:02:00,
2013-02-19 06:07:00,42.7,39.4,29.93,North,349,0.0,3.0,88,0.00,,,0.00,Wunderground v.1.15,2013-02-19 14:07:00,
2013-02-19 06:12:00,42.7,39.4,29.93,North,349,0.0,3.0,88,0.00,,,0.00,Wunderground v.1.15,2013-02-19 14:12:00,
2013-02-19 06:18:00,42.7,39.4,29.93,North,349,0.0,3.0,88,0.00,,,0.00,Wunderground v.1.15,2013-02-19 14:18:00,
2013-02-19 06:24:00,42.6,39.3,29.93,North,349,0.0,3.0,88,0.00,,,0.00,Wunderground v.1.15,2013-02-19 14:24:00,
2013-02-19 06:30:00,42.6,39.3,29.93,North,349,0.0,3.0,88,0.00,,,0.00,Wunderground v.1.15,2013-02-19 14:30:00,
2013-02-19 06:36:00,42.6,39.3,29.92,North,349,0.0,3.0,88,0.00,,,0.00,Wunderground v.1.15,2013-02-19 14:36:00,
2013-02-19 06:42:00,42.5,39.2,29.92,North,349,0.0,3.0,88,0.00,,,0.00,Wunderground v.1.15,2013-02-19 14:42:00,
2013-02-19 06:47:00,42.5,39.2,29.92,North,349,0.0,3.0,88,0.00,,,0.00,Wunderground v.1.15,2013-02-19 14:47:00,
2013-02-19 06:53:00,42.7,39.4,29.92,North,349,0.0,3.0,88,0.00,,,0.00,Wunderground v.1.15,2013-02-19 14:53:00,
2013-02-19 06:58:00,42.7,39.4,29.92,North,349,0.0,3.0,88,0.00,,,0.00,Wunderground v.1.15,2013-02-19 14:58:00,
2013-02-19 07:03:00,42.7,39.4,29.92,North,349,0.0,3.0,88,0.00,,,0.00,Wunderground v.1.15,2013-02-19 15:03:00,
2013-02-19 07:08:00,42.7,39.4,29.91,NNW,348,0.0,3.0,88,0.00,,,0.00,Wunderground v.1.15,2013-02-19 15:08:00,
2013-02-19 07:14:00,42.8,39.8,29.91,North,349,0.0,3.0,89,0.00,,,0.00,Wunderground v.1.15,2013-02-19 15:14:00,
2013-02-19 07:19:00,42.9,39.9,29.91,North,349,0.0,3.0,89,0.00,,,0.00,Wunderground v.1.15,2013-02-19 15:19:00,
2013-02-19 07:25:00,43.1,40.1,29.91,North,349,0.0,3.0,89,0.00,,,0.00,Wunderground v.1.15,2013-02-19 15:25:00,
2013-02-19 07:31:00,43.3,40.3,29.91,North,349,0.0,3.0,89,0.00,,,0.00,Wunderground v.1.15,2013-02-19 15:31:00,
2013-02-19 07:36:00,43.4,40.4,29.91,NW,319,0.0,3.0,89,0.00,,,0.00,Wunderground v.1.15,2013-02-19 15:36:00,
2013-02-19 07:42:00,43.6,40.3,29.91,NW,312,0.0,3.0,88,0.00,,,0.00,Wunderground v.1.15,2013-02-19 15:42:00,
2013-02-19 07:47:00,43.5,40.5,29.91,NW,312,0.0,3.0,89,0.00,,,0.00,Wunderground v.1.15,2013-02-19 15:47:00,
2013-02-19 07:53:00,43.2,40.5,29.91,NNW,338,1.0,3.0,90,0.00,,,0.01,Wunderground v.1.15,2013-02-19 15:53:00,
2013-02-19 07:58:00,42.9,40.7,29.91,North,360,1.0,3.0,92,0.00,,,0.01,Wunderground v.1.15,2013-02-19 15:58:00,
2013-02-19 08:04:00,42.8,40.9,29.91,North,1,1.0,3.0,93,0.00,,,0.01,Wunderground v.1.15,2013-02-19 16:04:00,
2013-02-19 08:09:00,42.8,40.9,29.91,North,360,1.0,3.0,93,0.00,,,0.01,Wunderground v.1.15,2013-02-19 16:09:00,
2013-02-19 08:14:00,42.8,41.2,29.90,North,6,1.0,3.0,94,0.00,,,0.01,Wunderground v.1.15,2013-02-19 16:14:00,
2013-02-19 08:19:00,43.1,41.5,29.90,SSW,198,0.0,3.0,94,0.00,,,0.02,Wunderground v.1.15,2013-02-19 16:19:00,
2013-02-19 08:24:00,43.3,42.0,29.90,NW,310,0.0,3.0,95,0.00,,,0.02,Wunderground v.1.15,2013-02-19 16:24:00,
2013-02-19 08:30:00,43.3,42.0,29.90,North,350,1.0,1.0,95,0.00,,,0.02,Wunderground v.1.15,2013-02-19 16:30:00,
2013-02-19 08:36:00,43.6,42.3,29.89,North,357,1.0,3.0,95,0.00,,,0.02,Wunderground v.1.15,2013-02-19 16:36:00,
2013-02-19 08:41:00,43.8,42.5,29.89,SSW,212,0.0,3.0,95,0.00,,,0.02,Wunderground v.1.15,2013-02-19 16:41:00,
2013-02-19 08:46:00,43.8,42.5,29.89,SW,214,1.0,3.0,95,0.00,,,0.02,Wunderground v.1.15,2013-02-19 16:46:00,
2013-02-19 08:52:00,43.5,42.2,29.89,NW,313,2.0,3.0,95,0.00,,,0.02,Wunderground v.1.15,2013-02-19 16:52:00,
2013-02-19 08:58:00,43.1,41.8,29.89,WSW,251,2.0,3.0,95,0.00,,,0.02,Wunderground v.1.15,2013-02-19 16:58:00,
2013-02-19 09:04:00,43.1,42.0,29.88,NE,42,2.0,4.0,96,0.00,,,0.03,Wunderground v.1.15,2013-02-19 17:04:00,
2013-02-19 09:10:00,43.2,42.1,29.88,NNE,30,2.0,2.0,96,0.24,,,0.06,Wunderground v.1.15,2013-02-19 17:10:00,
2013-02-19 09:15:00,43.3,42.2,29.88,NNE,30,1.0,3.0,96,0.16,,,0.07,Wunderground v.1.15,2013-02-19 17:15:00,
2013-02-19 09:21:00,43.5,42.7,29.88,NNE,19,0.0,3.0,97,0.12,,,0.08,Wunderground v.1.15,2013-02-19 17:21:00,
2013-02-19 09:27:00,43.7,42.9,29.88,NNE,23,0.0,3.0,97,0.49,,,0.12,Wunderground v.1.15,2013-02-19 17:27:00,
2013-02-19 09:32:00,43.8,43.0,29.87,NNE,23,1.0,3.0,97,0.14,,,0.13,Wunderground v.1.15,2013-02-19 17:32:00,
2013-02-19 09:39:00,44.0,43.2,29.86,NE,50,1.0,3.0,97,0.05,,,0.13,Wunderground v.1.15,2013-02-19 17:39:00,
2013-02-19 09:44:00,44.2,43.4,29.86,SW,233,2.0,3.0,97,0.05,,,0.14,Wunderground v.1.15,2013-02-19 17:44:00,
2013-02-19 09:50:00,44.7,44.2,29.86,SSW,197,3.0,7.0,98,0.05,,,0.14,Wunderground v.1.15,2013-02-19 17:50:00,
2013-02-19 09:55:00,45.2,44.4,29.86,SSE,147,5.0,13.0,97,0.04,,,0.14,Wunderground v.1.15,2013-02-19 17:55:00,
2013-02-19 10:00:00,45.5,44.7,29.86,SSE,150,8.0,8.0,97,0.00,,,0.14,Wunderground v.1.15,2013-02-19 18:00:00,
2013-02-19 10:06:00,45.9,44.8,29.86,SW,221,9.0,14.0,96,0.00,,,0.14,Wunderground v.1.15,2013-02-19 18:06:00,
2013-02-19 10:12:00,46.2,44.8,29.85,South,169,9.0,9.0,95,0.00,,,0.14,Wunderground v.1.15,2013-02-19 18:12:00,
2013-02-19 10:18:00,46.6,45.2,29.85,SSW,193,9.0,13.0,95,0.00,,,0.14,Wunderground v.1.15,2013-02-19 18:18:00,
2013-02-19 10:23:00,47.0,45.4,29.85,South,178,9.0,16.0,94,0.00,,,0.14,Wunderground v.1.15,2013-02-19 18:23:00,
2013-02-19 10:29:00,47.3,45.4,29.84,South,169,10.0,16.0,93,0.00,,,0.14,Wunderground v.1.15,2013-02-19 18:29:00,
2013-02-19 10:34:00,47.3,45.4,29.84,SW,219,10.0,11.0,93,0.00,,,0.14,Wunderground v.1.15,2013-02-19 18:34:00,
2013-02-19 10:39:00,47.2,45.0,29.84,SSE,155,10.0,18.0,92,0.00,,,0.14,Wunderground v.1.15,2013-02-19 18:39:00,
2013-02-19 10:45:00,47.1,44.9,29.83,SW,214,9.0,13.0,92,0.00,,,0.14,Wunderground v.1.15,2013-02-19 18:45:00,
2013-02-19 10:50:00,46.9,44.7,29.83,SSE,156,9.0,9.0,92,0.00,,,0.14,Wunderground v.1.15,2013-02-19 18:50:00,
2013-02-19 10:55:00,46.8,44.9,29.83,SSE,148,9.0,16.0,93,0.00,,,0.14,Wunderground v.1.15,2013-02-19 18:55:00,
2013-02-19 11:01:00,46.5,44.6,29.82,South,188,9.0,9.0,93,0.18,,,0.16,Wunderground v.1.15,2013-02-19 19:01:00,
2013-02-19 11:07:00,46.3,44.4,29.83,SW,226,9.0,16.0,93,0.14,,,0.17,Wunderground v.1.15,2013-02-19 19:07:00,
2013-02-19 11:13:00,45.2,43.0,29.83,South,172,10.0,16.0,92,0.20,,,0.19,Wunderground v.1.15,2013-02-19 19:13:00,
2013-02-19 11:19:00,44.0,41.8,29.83,SSE,153,10.0,16.0,92,0.15,,,0.21,Wunderground v.1.15,2013-02-19 19:19:00,
2013-02-19 11:24:00,43.7,42.4,29.83,South,189,7.0,9.0,95,0.18,,,0.23,Wunderground v.1.15,2013-02-19 19:24:00,
2013-02-19 11:30:00,43.2,41.3,29.84,SE,124,6.0,6.0,93,0.68,,,0.28,Wunderground v.1.15,2013-02-19 19:30:00,
2013-02-19 11:35:00,41.9,40.0,29.83,SW,231,5.0,7.0,93,0.11,,,0.28,Wunderground v.1.15,2013-02-19 19:35:00,
2013-02-19 11:40:00,42.4,41.3,29.83,SW,223,3.0,3.0,96,0.09,,,0.29,Wunderground v.1.15,2013-02-19 19:40:00,
2013-02-19 11:45:00,43.3,42.5,29.82,South,180,3.0,7.0,97,0.11,,,0.30,Wunderground v.1.15,2013-02-19 19:45:00,
2013-02-19 11:51:00,43.9,43.1,29.81,SE,137,2.0,3.0,97,0.11,,,0.31,Wunderground v.1.15,2013-02-19 19:51:00,
2013-02-19 11:56:00,44.3,43.5,29.81,SSW,202,2.0,3.0,97,0.07,,,0.31,Wunderground v.1.15,2013-02-19 19:56:00,
2013-02-19 12:02:00,44.5,43.4,29.81,SSW,195,3.0,7.0,96,0.04,,,0.31,Wunderground v.1.15,2013-02-19 20:02:00,
2013-02-19 12:08:00,44.6,43.5,29.81,SW,214,3.0,7.0,96,0.00,,,0.32,Wunderground v.1.15,2013-02-19 20:08:00,
2013-02-19 12:14:00,44.6,43.5,29.81,SSW,195,2.0,3.0,96,0.16,,,0.33,Wunderground v.1.15,2013-02-19 20:14:00,
2013-02-19 12:20:00,44.3,43.2,29.81,NNE,15,2.0,2.0,96,0.22,,,0.35,Wunderground v.1.15,2013-02-19 20:20:00,
2013-02-19 12:25:00,44.3,43.2,29.81,SW,214,2.0,3.0,96,0.18,,,0.37,Wunderground v.1.15,2013-02-19 20:25:00,
2013-02-19 12:31:00,44.1,43.0,29.81,West,264,2.0,3.0,96,0.14,,,0.38,Wunderground v.1.15,2013-02-19 20:31:00,
2013-02-19 12:36:00,43.7,42.6,29.80,WSW,244,2.0,4.0,96,0.10,,,0.39,Wunderground v.1.15,2013-02-19 20:36:00,
2013-02-19 12:41:00,43.6,42.5,29.80,WNW,301,2.0,3.0,96,0.08,,,0.40,Wunderground v.1.15,2013-02-19 20:41:00,
2013-02-19 12:46:00,43.5,42.4,29.79,NE,37,2.0,3.0,96,0.08,,,0.40,Wunderground v.1.15,2013-02-19 20:46:00,
2013-02-19 12:51:00,43.3,42.2,29.79,NW,321,2.0,3.0,96,0.06,,,0.41,Wunderground v.1.15,2013-02-19 20:51:00,
2013-02-19 12:57:00,43.6,42.8,29.78,NNW,340,2.0,3.0,97,0.06,,,0.41,Wunderground v.1.15,2013-02-19 20:57:00,
2013-02-19 13:02:00,43.4,42.3,29.78,NW,309,1.0,4.0,96,0.05,,,0.41,Wunderground v.1.15,2013-02-19 21:02:00,
2013-02-19 13:08:00,43.8,43.0,29.77,NW,308,2.0,4.0,97,0.00,,,0.41,Wunderground v.1.15,2013-02-19 21:08:00,
2013-02-19 13:13:00,43.9,43.1,29.77,WNW,292,2.0,3.0,97,0.00,,,0.41,Wunderground v.1.15,2013-02-19 21:13:00,
2013-02-19 13:19:00,44.0,42.9,29.77,NW,304,1.0,3.0,96,0.00,,,0.41,Wunderground v.1.15,2013-02-19 21:19:00,
2013-02-19 13:24:00,43.9,42.8,29.77,WNW,283,2.0,3.0,96,0.00,,,0.41,Wunderground v.1.15,2013-02-19 21:24:00,
2013-02-19 13:29:00,44.3,43.5,29.78,SSW,205,2.0,3.0,97,0.00,,,0.41,Wunderground v.1.15,2013-02-19 21:29:00,
2013-02-19 13:34:00,44.5,43.4,29.78,SW,218,2.0,4.0,96,0.00,,,0.41,Wunderground v.1.15,2013-02-19 21:34:00,
2013-02-19 13:40:00,44.5,43.2,29.78,West,275,2.0,3.0,95,0.00,,,0.41,Wunderground v.1.15,2013-02-19 21:40:00,
2013-02-19 13:45:00,44.5,43.4,29.77,WSW,257,2.0,3.0,96,0.00,,,0.41,Wunderground v.1.15,2013-02-19 21:45:00,
2013-02-19 13:50:00,44.6,43.3,29.77,SW,235,2.0,2.0,95,0.00,,,0.41,Wunderground v.1.15,2013-02-19 21:50:00,
2013-02-19 13:55:00,44.7,43.6,29.77,WSW,243,1.0,3.0,96,0.00,,,0.41,Wunderground v.1.15,2013-02-19 21:55:00,
2013-02-19 14:00:00,44.8,43.7,29.77,NNW,343,1.0,3.0,96,0.00,,,0.41,Wunderground v.1.15,2013-02-19 22:00:00,
2013-02-19 14:06:00,44.0,42.4,29.78,SE,142,4.0,8.0,94,0.00,,,0.41,Wunderground v.1.15,2013-02-19 22:06:00,
2013-02-19 14:12:00,43.7,42.4,29.78,WNW,283,5.0,6.0,95,0.00,,,0.41,Wunderground v.1.15,2013-02-19 22:12:00,
2013-02-19 14:18:00,43.7,42.1,29.78,East,80,4.0,11.0,94,0.00,,,0.41,Wunderground v.1.15,2013-02-19 22:18:00,
2013-02-19 14:24:00,43.7,41.8,29.78,NW,316,4.0,6.0,93,0.00,,,0.41,Wunderground v.1.15,2013-02-19 22:24:00,
2013-02-19 14:29:00,44.4,42.5,29.77,NW,319,3.0,6.0,93,0.00,,,0.41,Wunderground v.1.15,2013-02-19 22:29:00,
2013-02-19 14:34:00,44.4,41.7,29.77,West,279,4.0,8.0,90,0.00,,,0.41,Wunderground v.1.15,2013-02-19 22:34:00,
2013-02-19 14:39:00,44.6,41.8,29.77,NW,309,5.0,9.0,90,0.00,,,0.41,Wunderground v.1.15,2013-02-19 22:39:00,
2013-02-19 14:45:00,44.7,41.4,29.77,NW,304,5.0,5.0,88,0.00,,,0.41,Wunderground v.1.15,2013-02-19 22:45:00,
2013-02-19 14:51:00,44.6,41.0,29.77,WNW,285,4.0,6.0,87,0.00,,,0.41,Wunderground v.1.15,2013-02-19 22:51:00,
2013-02-19 14:57:00,45.2,41.3,29.77,WNW,301,4.0,7.0,86,0.00,,,0.41,Wunderground v.1.15,2013-02-19 22:57:00,
2013-02-19 15:04:00,45.6,40.7,29.77,North,353,4.0,5.0,83,0.00,,,0.41,Wunderground v.1.15,2013-02-19 23:04:00,
2013-02-19 15:09:00,46.0,41.1,29.77,SW,224,5.0,6.0,83,0.00,,,0.41,Wunderground v.1.15,2013-02-19 23:09:00,
2013-02-19 15:15:00,46.4,40.9,29.77,SW,235,5.0,6.0,81,0.00,,,0.41,Wunderground v.1.15,2013-02-19 23:15:00,
2013-02-19 15:21:00,46.0,40.2,29.77,NNE,24,4.0,6.0,80,0.00,,,0.41,Wunderground v.1.15,2013-02-19 23:21:00,
2013-02-19 15:26:00,45.8,40.3,29.76,West,278,4.0,6.0,81,0.00,,,0.41,Wunderground v.1.15,2013-02-19 23:26:00,
2013-02-19 15:31:00,45.5,39.4,29.76,NW,318,4.0,8.0,79,0.00,,,0.41,Wunderground v.1.15,2013-02-19 23:31:00,
2013-02-19 15:36:00,45.5,39.7,29.76,NW,326,4.0,8.0,80,0.00,,,0.41,Wunderground v.1.15,2013-02-19 23:36:00,
2013-02-19 15:42:00,45.3,38.8,29.76,North,4,4.0,5.0,78,0.00,,,0.41,Wunderground v.1.15,2013-02-19 23:42:00,
2013-02-19 15:47:00,45.4,39.6,29.76,NNW,330,4.0,7.0,80,0.00,,,0.41,Wunderground v.1.15,2013-02-19 23:47:00,
2013-02-19 15:54:00,45.5,39.7,29.76,NW,304,2.0,6.0,80,0.00,,,0.41,Wunderground v.1.15,2013-02-19 23:54:00,
2013-02-19 15:59:00,45.8,40.3,29.75,NW,324,2.0,6.0,81,0.00,,,0.41,Wunderground v.1.15,2013-02-19 23:59:00,
2013-02-19 16:04:00,45.9,39.8,29.76,NNW,347,2.0,11.0,79,0.00,,,0.41,Wunderground v.1.15,2013-02-20 00:04:00,
2013-02-19 16:09:00,44.4,39.2,29.77,NNW,336,7.0,14.0,82,0.00,,,0.41,Wunderground v.1.15,2013-02-20 00:09:00,
2013-02-19 16:14:00,42.8,39.5,29.76,NNE,30,9.0,9.0,88,0.00,,,0.42,Wunderground v.1.15,2013-02-20 00:14:00,
2013-02-19 16:20:00,42.7,40.0,29.76,NNE,24,6.0,6.0,90,0.00,,,0.42,Wunderground v.1.15,2013-02-20 00:20:00,
2013-02-19 16:26:00,42.8,40.1,29.76,NW,311,5.0,6.0,90,0.00,,,0.42,Wunderground v.1.15,2013-02-20 00:26:00,
2013-02-19 16:32:00,43.0,40.0,29.75,NE,49,5.0,9.0,89,0.00,,,0.42,Wunderground v.1.15,2013-02-20 00:32:00,
2013-02-19 16:37:00,42.8,39.2,29.75,NNW,331,6.0,9.0,87,0.00,,,0.42,Wunderground v.1.15,2013-02-20 00:37:00,
2013-02-19 16:43:00,42.6,39.3,29.75,NNW,335,5.0,7.0,88,0.00,,,0.42,Wunderground v.1.15,2013-02-20 00:43:00,
2013-02-19 16:48:00,42.4,39.1,29.75,NNW,339,4.0,7.0,88,0.00,,,0.42,Wunderground v.1.15,2013-02-20 00:48:00,
2013-02-19 16:53:00,42.2,38.9,29.75,NW,312,3.0,4.0,88,0.00,,,0.42,Wunderground v.1.15,2013-02-20 00:53:00,
2013-02-19 16:58:00,42.3,39.0,29.75,West,274,2.0,5.0,88,0.00,,,0.42,Wunderground v.1.15,2013-02-20 00:58:00,
2013-02-19 17:03:00,42.5,38.6,29.75,WNW,298,3.0,9.0,86,0.00,,,0.42,Wunderground v.1.15,2013-02-20 01:03:00,
2013-02-19 17:09:00,42.6,38.7,29.75,WNW,294,3.0,9.0,86,0.00,,,0.42,Wunderground v.1.15,2013-02-20 01:09:00,
2013-02-19 17:15:00,42.6,38.7,29.75,NW,312,3.0,5.0,86,0.00,,,0.42,Wunderground v.1.15,2013-02-20 01:15:00,
2013-02-19 17:20:00,42.8,38.6,29.75,West,276,3.0,3.0,85,0.00,,,0.42,Wunderground v.1.15,2013-02-20 01:20:00,
2013-02-19 17:25:00,43.0,38.8,29.75,WNW,289,3.0,3.0,85,0.00,,,0.42,Wunderground v.1.15,2013-02-20 01:25:00,
2013-02-19 17:30:00,43.0,39.1,29.75,WNW,301,1.0,3.0,86,0.00,,,0.42,Wunderground v.1.15,2013-02-20 01:30:00,
2013-02-19 17:35:00,42.8,38.6,29.75,WNW,301,2.0,7.0,85,0.00,,,0.42,Wunderground v.1.15,2013-02-20 01:35:00,
2013-02-19 17:40:00,42.7,38.5,29.75,WNW,294,3.0,6.0,85,0.00,,,0.42,Wunderground v.1.15,2013-02-20 01:40:00,
2013-02-19 17:46:00,42.5,38.3,29.75,SW,214,3.0,6.0,85,0.00,,,0.42,Wunderground v.1.15,2013-02-20 01:46:00,
2013-02-19 17:51:00,42.4,37.6,29.75,NNW,347,3.0,6.0,83,0.00,,,0.42,Wunderground v.1.15,2013-02-20 01:51:00,
2013-02-19 17:57:00,42.2,37.7,29.75,WNW,300,3.0,6.0,84,0.00,,,0.42,Wunderground v.1.15,2013-02-20 01:57:00,
2013-02-19 18:02:00,42.0,37.5,29.75,NW,309,2.0,3.0,84,0.00,,,0.42,Wunderground v.1.15,2013-02-20 02:02:00,
2013-02-19 18:09:00,41.6,37.4,29.75,NW,319,2.0,3.0,85,0.00,,,0.42,Wunderground v.1.15,2013-02-20 02:09:00,
2013-02-19 18:14:00,41.4,37.2,29.75,NW,310,2.0,3.0,85,0.00,,,0.42,Wunderground v.1.15,2013-02-20 02:14:00,
2013-02-19 18:19:00,41.3,37.1,29.76,SW,236,3.0,5.0,85,0.00,,,0.42,Wunderground v.1.15,2013-02-20 02:19:00,
2013-02-19 18:24:00,41.2,37.0,29.76,WNW,292,3.0,5.0,85,0.00,,,0.42,Wunderground v.1.15,2013-02-20 02:24:00,
2013-02-19 18:29:00,41.1,36.9,29.76,NW,317,2.0,5.0,85,0.00,,,0.42,Wunderground v.1.15,2013-02-20 02:29:00,
2013-02-19 18:35:00,40.9,36.7,29.76,NNW,330,2.0,3.0,85,0.00,,,0.42,Wunderground v.1.15,2013-02-20 02:35:00,
2013-02-19 18:40:00,40.8,36.6,29.76,West,272,2.0,2.0,85,0.00,,,0.42,Wunderground v.1.15,2013-02-20 02:40:00,
2013-02-19 18:46:00,40.7,36.8,29.76,NW,317,2.0,3.0,86,0.00,,,0.42,Wunderground v.1.15,2013-02-20 02:46:00,
2013-02-19 18:51:00,40.6,36.7,29.76,WNW,288,2.0,4.0,86,0.00,,,0.42,Wunderground v.1.15,2013-02-20 02:51:00,
2013-02-19 18:56:00,40.5,36.6,29.76,West,274,2.0,4.0,86,0.00,,,0.42,Wunderground v.1.15,2013-02-20 02:56:00,
2013-02-19 19:01:00,40.4,36.5,29.76,NW,314,2.0,3.0,86,0.00,,,0.42,Wunderground v.1.15,2013-02-20 03:01:00,
2013-02-19 19:06:00,40.1,36.5,29.76,NNW,328,1.0,3.0,87,0.00,,,0.42,Wunderground v.1.15,2013-02-20 03:06:00,
2013-02-19 19:12:00,39.9,36.3,29.76,NNW,328,0.0,3.0,87,0.00,,,0.42,Wunderground v.1.15,2013-02-20 03:12:00,
2013-02-19 19:17:00,39.5,36.2,29.76,SW,220,0.0,3.0,88,0.00,,,0.42,Wunderground v.1.15,2013-02-20 03:17:00,
2013-02-19 19:22:00,39.2,36.2,29.76,SW,221,1.0,3.0,89,0.00,,,0.42,Wunderground v.1.15,2013-02-20 03:22:00,
2013-02-19 19:28:00,39.0,36.0,29.76,SW,217,1.0,3.0,89,0.00,,,0.42,Wunderground v.1.15,2013-02-20 03:28:00,
2013-02-19 19:33:00,38.8,36.1,29.76,North,356,1.0,3.0,90,0.00,,,0.42,Wunderground v.1.15,2013-02-20 03:33:00,
2013-02-19 19:39:00,38.5,35.8,29.76,North,356,1.0,3.0,90,0.00,,,0.42,Wunderground v.1.15,2013-02-20 03:39:00,
2013-02-19 19:44:00,38.3,35.6,29.76,North,356,0.0,3.0,90,0.00,,,0.42,Wunderground v.1.15,2013-02-20 03:44:00,
2013-02-19 19:49:00,38.1,35.7,29.76,North,356,0.0,3.0,91,0.00,,,0.42,Wunderground v.1.15,2013-02-20 03:49:00,
2013-02-19 19:55:00,38.0,35.6,29.76,North,356,0.0,3.0,91,0.00,,,0.42,Wunderground v.1.15,2013-02-20 03:55:00,
2013-02-19 20:00:00,37.8,35.4,29.77,North,356,0.0,3.0,91,0.00,,,0.42,Wunderground v.1.15,2013-02-20 04:00:00,
2013-02-19 20:06:00,37.6,35.5,29.77,North,355,0.0,3.0,92,0.00,,,0.42,Wunderground v.1.15,2013-02-20 04:06:00,
2013-02-19 20:11:00,37.5,35.4,29.76,North,354,0.0,3.0,92,0.00,,,0.42,Wunderground v.1.15,2013-02-20 04:11:00,
2013-02-19 20:17:00,37.5,35.7,29.76,West,270,0.0,3.0,93,0.00,,,0.42,Wunderground v.1.15,2013-02-20 04:17:00,
2013-02-19 20:23:00,37.7,35.9,29.77,West,271,1.0,3.0,93,0.00,,,0.42,Wunderground v.1.15,2013-02-20 04:23:00,
2013-02-19 20:28:00,37.7,35.6,29.77,West,270,1.0,3.0,92,0.00,,,0.42,Wunderground v.1.15,2013-02-20 04:28:00,
2013-02-19 20:34:00,37.7,35.6,29.77,West,262,0.0,3.0,92,0.00,,,0.42,Wunderground v.1.15,2013-02-20 04:34:00,
2013-02-19 20:39:00,37.4,35.3,29.77,West,262,1.0,3.0,92,0.00,,,0.42,Wunderground v.1.15,2013-02-20 04:39:00,
2013-02-19 20:44:00,37.1,35.0,29.77,North,1,1.0,3.0,92,0.00,,,0.42,Wunderground v.1.15,2013-02-20 04:44:00,
2013-02-19 20:50:00,36.6,34.5,29.77,North,3,1.0,3.0,92,0.00,,,0.42,Wunderground v.1.15,2013-02-20 04:50:00,
2013-02-19 20:56:00,36.5,34.9,29.78,NE,44,2.0,3.0,94,0.00,,,0.42,Wunderground v.1.15,2013-02-20 04:56:00,
2013-02-19 21:00:00,36.3,34.5,29.78,NE,44,2.0,3.0,93,0.00,,,0.42,Wunderground v.1.15,2013-02-20 05:00:00,
2013-02-19 21:01:00,36.2,34.4,29.78,NE,44,2.0,3.0,93,0.00,,,0.42,Wunderground v.1.15,2013-02-20 05:01:00,
2013-02-19 21:03:00,36.1,34.5,29.78,NE,44,2.0,3.0,94,0.00,,,0.42,Wunderground v.1.15,2013-02-20 05:03:00,
2013-02-19 21:04:00,36.1,34.5,29.78,NE,44,2.0,3.0,94,0.00,,,0.42,Wunderground v.1.15,2013-02-20 05:04:00,
2013-02-19 21:09:00,36.0,34.4,29.78,NE,44,1.0,3.0,94,0.00,,,0.42,Wunderground v.1.15,2013-02-20 05:09:00,
2013-02-19 21:15:00,35.8,34.2,29.78,NE,44,0.0,3.0,94,0.00,,,0.42,Wunderground v.1.15,2013-02-20 05:15:00,
2013-02-19 21:20:00,35.7,34.1,29.78,NE,44,0.0,3.0,94,0.00,,,0.42,Wunderground v.1.15,2013-02-20 05:20:00,
2013-02-19 21:25:00,35.6,34.3,29.78,NE,43,0.0,3.0,95,0.00,,,0.42,Wunderground v.1.15,2013-02-20 05:25:00,
2013-02-19 21:31:00,35.4,34.1,29.78,NE,39,0.0,3.0,95,0.00,,,0.42,Wunderground v.1.15,2013-02-20 05:31:00,
2013-02-19 21:36:00,35.2,33.9,29.78,North,352,1.0,3.0,95,0.00,,,0.42,Wunderground v.1.15,2013-02-20 05:36:00,
2013-02-19 21:42:00,35.1,33.8,29.78,North,352,1.0,3.0,95,0.00,,,0.42,Wunderground v.1.15,2013-02-20 05:42:00,
2013-02-19 21:47:00,34.9,33.6,29.79,North,350,1.0,3.0,95,0.00,,,0.42,Wunderground v.1.15,2013-02-20 05:47:00,
2013-02-19 21:52:00,34.9,33.6,29.78,NE,49,1.0,3.0,95,0.00,,,0.42,Wunderground v.1.15,2013-02-20 05:52:00,
2013-02-19 21:58:00,34.8,33.5,29.78,North,8,2.0,3.0,95,0.00,,,0.42,Wunderground v.1.15,2013-02-20 05:58:00,
2013-02-19 22:04:00,34.7,33.4,29.78,North,7,2.0,3.0,95,0.00,,,0.42,Wunderground v.1.15,2013-02-20 06:04:00,
2013-02-19 22:09:00,34.6,33.3,29.78,NNE,20,1.0,3.0,95,0.00,,,0.42,Wunderground v.1.15,2013-02-20 06:09:00,
2013-02-19 22:15:00,34.5,33.5,29.79,North,356,2.0,3.0,96,0.00,,,0.42,Wunderground v.1.15,2013-02-20 06:15:00,
2013-02-19 22:21:00,34.4,33.4,29.79,NNW,328,1.0,3.0,96,0.00,,,0.42,Wunderground v.1.15,2013-02-20 06:21:00,
2013-02-19 22:26:00,34.3,33.3,29.79,NNW,328,1.0,3.0,96,0.00,,,0.42,Wunderground v.1.15,2013-02-20 06:26:00,
2013-02-19 22:31:00,34.2,33.2,29.79,NNW,328,1.0,3.0,96,0.00,,,0.42,Wunderground v.1.15,2013-02-20 06:31:00,
2013-02-19 22:36:00,34.1,33.1,29.79,NNW,329,1.0,3.0,96,0.00,,,0.42,Wunderground v.1.15,2013-02-20 06:36:00,
2013-02-19 22:41:00,33.9,32.9,29.79,NNW,328,1.0,3.0,96,0.00,,,0.42,Wunderground v.1.15,2013-02-20 06:41:00,
2013-02-19 22:46:00,33.7,32.7,29.79,NNW,328,1.0,3.0,96,0.00,,,0.42,Wunderground v.1.15,2013-02-20 06:46:00,
2013-02-19 22:52:00,33.6,32.6,29.79,NNW,328,0.0,3.0,96,0.00,,,0.42,Wunderground v.1.15,2013-02-20 06:52:00,
2013-02-19 22:57:00,33.3,32.3,29.79,NNW,328,0.0,3.0,96,0.00,,,0.42,Wunderground v.1.15,2013-02-20 06:57:00,
2013-02-19 23:02:00,33.3,32.3,29.79,NNW,328,0.0,3.0,96,0.00,,,0.42,Wunderground v.1.15,2013-02-20 07:02:00,
2013-02-19 23:08:00,33.2,32.2,29.79,NNW,328,0.0,3.0,96,0.00,,,0.42,Wunderground v.1.15,2013-02-20 07:08:00,
2013-02-19 23:14:00,33.1,32.1,29.79,NNW,328,0.0,3.0,96,0.00,,,0.42,Wunderground v.1.15,2013-02-20 07:14:00,
2013-02-19 23:20:00,33.1,32.3,29.79,NNW,328,0.0,3.0,97,0.00,,,0.42,Wunderground v.1.15,2013-02-20 07:20:00,
2013-02-19 23:25:00,33.1,32.3,29.79,NNW,328,0.0,3.0,97,0.00,,,0.42,Wunderground v.1.15,2013-02-20 07:25:00,
2013-02-19 23:30:00,33.1,32.3,29.80,NNW,328,0.0,3.0,97,0.00,,,0.42,Wunderground v.1.15,2013-02-20 07:30:00,
2013-02-19 23:35:00,33.1,32.3,29.80,NNW,329,1.0,3.0,97,0.00,,,0.42,Wunderground v.1.15,2013-02-20 07:35:00,
2013-02-19 23:41:00,33.0,32.2,29.80,NNW,329,1.0,3.0,97,0.00,,,0.42,Wunderground v.1.15,2013-02-20 07:41:00,
2013-02-19 23:46:00,32.9,32.1,29.81,NNW,328,1.0,3.0,97,0.00,,,0.42,Wunderground v.1.15,2013-02-20 07:46:00,
2013-02-19 23:52:00,32.9,32.1,29.81,NNW,328,1.0,3.0,97,0.00,,,0.42,Wunderground v.1.15,2013-02-20 07:52:00,
2013-02-19 23:58:00,32.9,32.1,29.81,NNW,329,1.0,3.0,97,0.00,,,0.42,Wunderground v.1.15,2013-02-20 07:58:00,